Location: El Amarillo
(10.3514°N, 66.6981°W)
Time: 00:09:35
(UTC+00:00)

Daily predictions for brighter satellites

Satellite Brightness Start Highest point End
(mag) Time Altitude Azimuth Time Altitude Azimuth Time Altitude Azimuth
Cosmos 2219 Rocket 2.2 00:05:08 10° SSW 00:10:47 76° WNW 00:11:13 71° NNW
SJ 16-02 2.6 00:08:46 10° SSW 00:11:57 38° WSW 00:11:57 38° WSW
Feng Yun 1-1 Rocket 4.5 00:15:13 61° NNW 00:15:13 61° NNW 00:19:43 10° NNW
Cosmos 1354 Rocket 4.5 00:11:19 10° SSW 00:15:53 57° WSW 00:15:53 57° WSW
Cosmos 2263 Rocket 3.1 00:19:16 10° NNW 00:24:39 45° WSW 00:26:11 37° SW
Cosmos 2333 Rocket 3.8 00:21:10 10° SW 00:26:16 33° WNW 00:31:01 12° NNW
Okean O Rocket 3.8 00:30:18 23° WNW 00:30:18 23° WNW 00:32:36 10° NW
Atlas Centaur 2 4.1 00:39:02 10° SW 00:40:46 22° SW 00:40:46 22° SW
ATLAS 5 CENTAUR R/B 3.5 00:29:13 10° W 00:56:20 52° NNW 00:56:49 52° N
USA 234 4.3 07:28:13 10° NE 07:32:59 40° E 07:32:59 40° E
Ariane H10-3 4.4 07:44:43 51° S 07:45:17 52° S 08:36:58 10° E
Ariane H10-3 4.4 07:44:43 51° S 07:45:17 52° S 08:36:57 10° E
Cosmos 1697 Rocket 4.1 07:55:56 31° SE 07:55:56 31° SE 07:58:53 10° SSE
ATLAS 2A CENTAUR R/B 4.2 07:57:40 15° ESE 07:57:40 15° ESE 07:59:19 10° E
Centaur D AC-29 3.9 07:56:25 23° N 07:58:41 27° NNE 08:16:44 10° E
Envisat 4.4 07:56:25 10° NE 08:01:00 35° E 08:05:35 10° SSE
Aurora 2 Rocket 4.2 08:04:15 38° NE 08:04:15 38° NE 08:08:49 10° ENE
Intelsat 5-1 Rocket 4.2 07:59:17 52° SW 08:03:04 77° SSE 08:09:35 10° ENE
Atlas Centaur 2 4.4 08:05:30 24° N 08:08:00 28° NNE 08:14:33 10° ENE
GPS 2-12 Rocket1 4.1 08:18:16 46° E 08:18:16 46° E 08:21:45 10° ENE
Tiangong 1.0 08:24:21 13° ESE 08:24:21 13° ESE 08:24:48 10° ESE
GP-B 4.4 08:18:10 10° SSE 08:22:16 38° E 08:26:22 10° NNE
BLOCK DM-SL R/B 4.5 08:23:21 30° S 08:23:44 30° S 08:29:23 10° ESE
Ariane H10+ 3.5 08:26:36 24° S 08:27:12 24° SSE 08:35:04 10° ESE
Meteor 2-13 Rocket 4.5 08:25:19 10° N 08:31:27 79° E 08:37:36 10° S
Maqsat-H 3.6 08:25:19 37° WSW 08:32:04 75° S 08:37:26 10° E
Milstar 3 Cent rocket 3.4 08:27:59 28° SW 08:32:33 53° SSE 08:38:00 10° ENE
Cosmos 1725 Rocket 3.8 08:27:21 10° S 08:33:37 70° W 08:39:54 10° N
ARIANE 5 R/B 4.5 08:32:47 28° SSW 08:34:07 32° S 08:44:39 10° ESE
Cosmos 1980 Rocket 2.6 08:30:09 10° N 08:35:40 61° ENE 08:41:11 10° SSE
BREEZE-M DEB (TANK) 4.2 08:38:44 31° NNW 08:38:44 31° NNW 08:41:05 10° N
Cosmos 1954 Rocket 4.1 08:39:35 54° SW 08:39:35 54° SW 08:44:02 10° S
Ariane H10+ 4.0 08:35:46 30° SW 08:39:10 36° SSW 08:44:32 10° SE
Cosmos 2228 Rocket 2.9 08:40:17 10° S 08:44:48 84° W 08:49:17 10° N
Meteor 2-9 Rocket 4.5 08:40:48 10° N 08:46:16 66° E 08:51:35 10° SSE
GPS 2-15 Rocket1 4.2 08:48:58 31° NNW 08:49:34 32° N 08:53:57 10° NE
Lacrosse 5 rocket 3.6 08:52:11 15° NNW 08:52:11 15° NNW 08:53:22 10° N
Cosmos 2369 3.5 08:49:10 10° NNW 08:54:47 75° WSW 09:00:23 10° S
COSMOS 2487 2.4 08:58:39 54° NE 08:58:39 54° NE 09:00:59 10° NNE
GOES 2 Rocket 3.3 08:59:47 29° SW 09:02:17 72° SSE 09:06:38 10° ENE
Cosmos 1833 4.1 08:57:47 10° SSW 09:03:21 63° WNW 09:09:00 10° N
NOAA 11 4.1 08:58:51 10° N 09:04:17 87° WNW 09:09:43 10° SSW
Cosmos 1707 Rocket 3.4 09:00:39 10° S 09:05:02 88° WNW 09:09:22 10° N
OAO 1 Rocket 4.4 09:03:36 30° WNW 09:06:15 79° SW 09:11:35 10° SE
CZ-2C R/B 2.4 09:03:18 10° S 09:08:27 73° WSW 09:13:39 10° NNW
Cosmos 1741 Rocket 4.3 09:03:39 10° N 09:08:48 67° ENE 09:13:59 10° SSE
SWIFT 4.2 09:08:27 15° SSW 09:08:57 16° SSW 09:11:29 10° SSE
Lacrosse 4 Rocket 4.4 09:06:48 10° NNE 09:09:46 17° ENE 09:12:43 10° ESE
Cosmos 1818 4.0 09:07:44 27° WSW 09:09:55 38° WNW 09:14:56 10° N
USA 234 4.1 09:11:40 10° N 09:17:06 29° NW 09:20:24 19° W
Cosmos 405 Rocket 4.2 09:15:18 10° SSE 09:18:53 40° E 09:22:32 10° NNE
Ariane 44LP R/B 3.0 09:17:38 21° WSW 09:19:11 30° SSW 09:21:13 10° SE
ATLAS 5 CENTAUR R/B 3.8 09:19:10 12° SW 09:24:44 29° S 09:43:06 10° SE
ATLAS CENTAUR R/B 1.6 09:27:08 22° NW 09:27:08 22° NW 09:28:46 10° N
IKONOS-2 4.4 09:23:12 10° S 09:27:21 65° WSW 09:31:32 10° NNW
Cosmos 1869 Rocket 3.5 09:25:13 10° NNW 09:29:31 64° W 09:33:48 10° S
CZ-2C R/B 4.0 09:27:35 10° NNW 09:31:59 26° WNW 09:36:12 10° SW
DELTA 2 DEB (DPAF) 4.5 09:28:41 10° S 09:32:50 41° WSW 09:36:58 10° NNW
H-2A R/B 4.1 09:31:49 10° NNW 09:34:22 18° WNW 09:36:57 10° WSW
Cosmos 1939 Rocket 2.9 09:39:09 10° NNE 09:43:03 80° ESE 09:46:55 10° S
ARIANE 5 R/B 4.5 09:31:12 10° WSW 09:43:25 26° SSW 09:46:55 10° SE
SL-08 R/B 3.7 09:40:36 10° S 09:44:52 38° W 09:49:11 10° NNW
ATLAS 2A CENTAUR R/B 2.0 09:40:33 10° WSW 09:44:53 73° NNW 09:51:51 10° ENE
ARIANE 5 R/B 4.0 09:46:33 10° SSW 09:47:47 13° SSE 09:49:34 10° SE
Cosmos 1733 Rocket 4.0 09:44:08 10° N 09:48:23 53° E 09:52:37 10° SSE
H-2A R/B 3.3 09:43:28 10° NNE 09:48:38 48° E 09:53:40 10° S
Cosmos 1242 Rocket 2.3 09:47:47 10° NNW 09:51:06 67° W 09:54:26 10° S
SL-27 R/B 3.2 09:48:35 10° SW 09:51:42 31° WNW 09:54:51 10° NNW
Cosmos 1975 3.6 09:49:50 10° NNW 09:53:18 30° W 09:56:46 10° SSW
ASTRO E2 3.7 09:49:41 10° NW 09:53:23 42° NNE 09:57:05 10° ESE
SKYMED 2 4.4 09:49:32 10° SSE 09:53:47 58° ENE 09:58:02 10° N
DELTA 4 R/B 3.0 09:50:43 10° SW 09:53:52 64° SSE 10:05:01 10° ENE
Okean 1-7 3.4 09:49:58 10° S 09:54:16 70° E 09:58:32 10° N
Centaur AC-125 3.8 09:37:18 10° WNW 09:55:13 83° NNE 09:58:57 10° ESE
ATLAS 3B R/B 3.2 09:50:05 10° SSW 09:56:19 62° ESE 10:02:47 10° NNE
Atlas Centaur 2 3.2 09:50:18 10° NW 09:58:28 66° NNE 10:05:20 10° ESE
EPKM 4.3 09:50:40 10° SW 10:01:10 40° SSE 10:04:25 10° E
